Regional Weather Roundup
Issued by NWS

Home | Current Version | Previous Version | Text Only | Print | Product List | Glossary Off
Versions: 1 2 3 4 5 6 7 8 9 10 11 12 13 14 15 16 17 18 19 20 21 22 23 24 25 26 27 28 29 30 31 32 33 34 35 36 37 38 39 40 41 42 43 44 45 46 47 48 49 50

000
ASUS43 KLMK 161102
RWRKY
KENTUCKY REGIONAL WEATHER ROUNDUP
NATIONAL WEATHER SERVICE LOUISVILLE KY
600 AM EST MON JAN 16 2017

NOTE "FAIR" INDICATES FEW OR NO CLOUDS BELOW 12,000 FEET
WITH NO SIGNIFICANT WEATHER AND/OR OBSTRUCTIONS TO VISIBILITY.

KYZ001>023-026-027-061>063-070>075-161200-
WESTERN AND SOUTH CENTRAL KENTUCKY

CITY           SKY/WX    TMP DP  RH WIND       PRES   REMARKS
PADUCAH        FOG       45  43  93 E6        30.16F VSB 1/2
HENDERSON      CLOUDY    43  37  81 E5        30.21S
OWENSBORO      MOCLDY    43  41  93 E5        30.23S
HOPKINSVILLE   FOG       45  45 100 E6        30.19F VSB 3/4
BOWLING GREEN  FOG       45  44  97 CALM      30.24R VSB 1/4
GLASGOW        NOT AVBL
$$

KYZ024-025-028>034-038-045-046-053-161200-
NORTH CENTRAL KENTUCKY

CITY           SKY/WX    TMP DP  RH WIND       PRES   REMARKS
LOUISVILLE/SDF CLOUDY    43  40  89 NE3       30.26R
LOUISVILLE/LOU CLOUDY    43  40  89 CALM      30.27R
FORT KNOX      FOG       41  41 100 E5        30.23R VSB 1/2
$$

KYZ035>037-039>044-047>052-055>060-089>105-161200-
NORTHEAST KENTUCKY

CITY           SKY/WX    TMP DP  RH WIND       PRES   REMARKS
LEXINGTON      CLOUDY    42  40  92 E6        30.26R
COVINGTON      FOG       38  38 100 E6        30.27R VSB 1/2 WCI  33
FRANKFORT      CLOUDY    42  38  85 E5        30.25R
$$

KYZ054-064>069-076>088-106>120-161200-
SOUTHEAST KENTUCKY

CITY           SKY/WX    TMP DP  RH WIND       PRES   REMARKS
JACKSON        FOG       41  40  96 CALM      30.26S VSB 1/4
LONDON         FOG       46  44  93 CALM      30.25S VSB 1
SOMERSET       CLOUDY    45  45 100 CALM      30.26F FOG
MIDDLESBORO    FOG       50  50 100 CALM      30.28R VSB 1/2
MONTICELLO     FOG       44  44 100 CALM      30.27R VSB 1/2
$$




USA.gov is the U.S. government's official web portal to all federal, state and local government web resources and services.